QPF
0.00 0.00 0.00 0.00 0.00 0.00 0.00 0.00 0.00 0.00 0.00 0.00 0.00 0.00 0.00 0.00 0.00 0.00 0.00 0.00 0.00 0.00 0.00 0.00 0.00 0.01 0.01 0.01 0.02 0.02 0.02 0.02 0.02 0.03 0.03 0.03 0.03 0.03 0.02 0.02 0.02 0.02 0.02
0.00 0.00 0.00 0.00 0.00 0.00 0.00 0.00 0.00 0.00 0.00 0.00 0.00 0.00 0.00 0.00 0.00 0.00 0.00 0.00 0.00 0.00 0.00 0.00 0.00 0.00 0.01 0.01 0.02 0.02 0.02 0.02 0.03 0.03 0.03 0.03 0.03 0.03 0.03 0.03 0.02 0.02 0.03
0.00 0.00 0.00 0.00 0.00 0.00 0.00 0.00 0.00 0.00 0.00 0.00 0.00 0.00 0.00 0.00 0.00 0.00 0.00 0.00 0.00 0.00 0.00 0.00 0.00 0.00 0.00 0.01 0.01 0.02 0.02 0.02 0.03 0.03 0.03 0.03 0.04 0.04 0.04 0.03 0.03 0.03 0.03
0.00 0.00 0.00 0.00 0.00 0.00 0.00 0.00 0.00 0.00 0.00 0.00 0.00 0.00 0.00 0.00 0.00 0.00 0.00 0.00 0.00 0.00 0.00 0.00 0.00 0.00 0.00 0.00 0.01 0.01 0.02 0.02 0.03 0.04 0.04 0.04 0.04 0.04 0.04 0.04 0.04 0.03 0.03
0.00 0.00 0.00 0.00 0.00 0.00 0.00 0.00 0.00 0.00 0.00 0.00 0.00 0.00 0.00 0.00 0.00 0.00 0.00 0.00 0.00 0.00 0.00 0.00 0.00 0.00 0.00 0.00 0.01 0.01 0.02 0.03 0.03 0.04 0.05 0.05 0.05 0.05 0.05 0.05 0.05 0.04 0.04
0.00 0.00 0.00 0.00 0.00 0.00 0.00 0.00 0.00 0.00 0.00 0.00 0.00 0.00 0.00 0.00 0.00 0.00 0.00 0.00 0.00 0.00 0.00 0.00 0.00 0.00 0.00 0.00 0.00 0.01 0.02 0.03 0.04 0.05 0.06 0.06 0.07 0.07 0.07 0.06 0.06 0.05 0.05
0.00 0.00 0.00 0.00 0.00 0.00 0.00 0.00 0.00 0.00 0.00 0.00 0.00 0.00 0.00 0.00 0.00 0.00 0.00 0.00 0.00 0.00 0.00 0.00 0.00 0.00 0.00 0.00 0.00 0.00 0.02 0.03 0.05 0.06 0.07 0.08 0.09 0.09 0.09 0.09 0.08 0.07 0.06
0.00 0.00 0.00 0.00 0.00 0.00 0.00 0.00 0.00 0.00 0.00 0.00 0.00 0.00 0.00 0.00 0.00 0.00 0.00 0.00 0.00 0.00 0.00 0.00 0.00 0.00 0.00 0.00 0.00 0.00 0.01 0.03 0.05 0.07 0.09 0.11 0.13 0.13 0.13 0.12 0.11 0.09 0.08
0.00 0.00 0.00 0.00 0.00 0.00 0.00 0.00 0.00 0.00 0.00 0.00 0.00 0.00 0.00 0.00 0.00 0.00 0.00 0.00 0.00 0.00 0.00 0.00 0.00 0.00 0.00 0.00 0.00 0.00 0.01 0.03 0.06 0.09 0.12 0.14 0.16 0.17 0.18 0.17 0.15 0.14 0.11
0.00 0.00 0.00 0.00 0.00 0.00 0.00 0.00 0.00 0.00 0.00 0.00 0.00 0.00 0.00 0.00 0.00 0.00 0.00 0.00 0.00 0.00 0.00 0.00 0.00 0.00 0.00 0.00 0.00 0.00 0.01 0.03 0.07 0.11 0.16 0.20 0.22 0.24 0.24 0.22 0.21 0.18 0.14
0.00 0.00 0.00 0.00 0.00 0.00 0.00 0.00 0.00 0.00 0.00 0.00 0.00 0.00 0.00 0.00 0.00 0.00 0.00 0.00 0.00 0.00 0.00 0.00 0.00 0.00 0.00 0.00 0.00 0.01 0.02 0.05 0.09 0.13 0.17 0.21 0.24 0.26 0.28 0.27 0.24 0.22 0.19
0.00 0.00 0.00 0.00 0.00 0.00 0.00 0.00 0.00 0.00 0.00 0.00 0.00 0.00 0.00 0.00 0.00 0.00 0.00 0.00 0.00 0.00 0.00 0.00 0.00 0.00 0.00 0.00 0.00 0.01 0.02 0.04 0.08 0.12 0.16 0.18 0.20 0.23 0.26 0.30 0.30 0.28 0.24
0.00 0.00 0.00 0.00 0.00 0.00 0.00 0.00 0.00 0.00 0.00 0.00 0.00 0.00 0.00 0.00 0.00 0.00 0.00 0.00 0.00 0.00 0.00 0.00 0.00 0.00 0.00 0.00 0.00 0.00 0.01 0.02 0.04 0.06 0.09 0.12 0.15 0.18 0.21 0.26 0.29 0.30 0.28
0.00 0.00 0.00 0.00 0.00 0.00 0.00 0.00 0.00 0.00 0.00 0.00 0.00 0.00 0.00 0.00 0.00 0.00 0.00 0.01 0.01 0.00 0.00 0.00 0.00 0.00 0.00 0.00 0.00 0.00 0.01 0.01 0.02 0.03 0.05 0.08 0.10 0.12 0.16 0.20 0.22 0.24 0.24
0.00 0.00 0.00 0.00 0.00 0.00 0.00 0.00 0.00 0.00 0.00 0.00 0.00 0.00 0.00 0.00 0.00 0.00 0.00 0.01 0.03 0.03 0.00 0.00 0.00 0.00 0.00 0.00 0.00 0.00 0.00 0.00 0.01 0.03 0.04 0.05 0.07 0.08 0.11 0.15 0.18 0.19 0.21
0.00 0.00 0.00 0.00 0.00 0.00 0.00 0.00 0.00 0.00 0.00 0.00 0.00 0.00 0.00 0.00 0.00 0.00 0.00 0.01 0.02 0.04 0.03 0.00 0.00 0.00 0.00 0.00 0.00 0.00 0.00 0.00 0.01 0.01 0.02 0.03 0.04 0.05 0.07 0.09 0.12 0.14 0.17
0.00 0.00 0.00 0.00 0.00 0.00 0.01 0.01 0.01 0.01 0.01 0.00 0.00 0.00 0.00 0.00 0.00 0.00 0.00 0.01 0.01 0.03 0.04 0.01 0.00 0.00 0.00 0.00 0.00 0.00 0.00 0.00 0.00 0.00 0.01 0.01 0.02 0.03 0.04 0.04 0.06 0.08 0.11
0.00 0.00 0.00 0.00 0.01 0.01 0.01 0.01 0.01 0.01 0.01 0.00 0.00 0.00 0.00 0.00 0.00 0.00 0.00 0.01 0.01 0.01 0.03 0.02 0.00 0.00 0.00 0.00 0.00 0.00 0.00 0.00 0.00 0.00 0.00 0.01 0.01 0.02 0.02 0.03 0.03 0.04 0.05
0.00 0.00 0.00 0.01 0.01 0.01 0.01 0.01 0.01 0.01 0.01 0.00 0.00 0.00 0.00 0.00 0.00 0.00 0.00 0.01 0.01 0.01 0.02 0.04 0.02 0.00 0.00 0.00 0.00 0.00 0.00 0.00 0.00 0.00 0.00 0.00 0.00 0.01 0.01 0.02 0.02 0.03 0.03
0.00 0.00 0.01 0.01 0.01 0.02 0.02 0.01 0.01 0.01 0.01 0.00 0.00 0.00 0.00 0.00 0.00 0.00 0.01 0.01 0.02 0.03 0.04 0.04 0.03 0.01 0.01 0.00 0.01 0.01 0.00 0.00 0.00 0.00 0.00 0.00 0.00 0.00 0.01 0.01 0.01 0.02 0.02
0.00 0.00 0.01 0.01 0.02 0.02 0.01 0.01 0.01 0.01 0.00 0.00 0.00 0.00 0.00 0.00 0.01 0.02 0.04 0.06 0.08 0.09 0.07 0.06 0.04 0.02 0.01 0.01 0.01 0.01 0.01 0.00 0.00 0.00 0.00 0.00 0.00 0.00 0.00 0.00 0.00 0.00 0.01
0.00 0.01 0.01 0.01 0.02 0.02 0.01 0.01 0.01 0.01 0.00 0.00 0.00 0.00 0.00 0.00 0.01 0.02 0.03 0.04 0.06 0.09 0.10 0.09 0.06 0.04 0.02 0.01 0.01 0.01 0.01 0.01 0.01 0.00 0.01 0.00 0.00 0.00 0.00 0.00 0.00 0.00 0.00
0.01 0.01 0.01 0.01 0.01 0.01 0.01 0.01 0.01 0.00 0.00 0.00 0.00 0.00 0.00 0.00 0.00 0.01 0.01 0.01 0.02 0.02 0.03 0.05 0.05 0.03 0.02 0.01 0.02 0.02 0.02 0.02 0.01 0.01 0.01 0.01 0.00 0.00 0.00 0.00 0.00 0.00 0.00
0.00 0.00 0.01 0.01 0.01 0.01 0.01 0.01 0.01 0.01 0.00 0.00 0.00 0.00 0.00 0.00 0.00 0.00 0.02 0.03 0.02 0.01 0.00 0.01 0.02 0.02 0.02 0.03 0.05 0.06 0.04 0.02 0.01 0.01 0.01 0.02 0.00 0.00 0.00 0.00 0.00 0.00 0.00
0.00 0.00 0.01 0.01 0.01 0.01 0.01 0.01 0.01 0.01 0.00 0.00 0.00 0.00 0.00 0.00 0.00 0.01 0.03 0.03 0.02 0.01 0.01 0.01 0.02 0.03 0.04 0.05 0.06 0.07 0.04 0.02 0.01 0.00 0.01 0.02 0.01 0.00 0.00 0.00 0.00 0.00 0.00
0.00 0.00 0.01 0.01 0.01 0.01 0.01 0.01 0.01 0.01 0.00 0.00 0.00 0.00 0.00 0.00 0.01 0.02 0.03 0.04 0.04 0.02 0.02 0.01 0.01 0.01 0.01 0.01 0.01 0.03 0.03 0.02 0.02 0.01 0.01 0.01 0.01 0.01 0.01 0.00 0.00 0.00 0.00
MSLP
1028.51 1028.68 1028.81 1028.90 1028.96 1028.99 1029.01 1029.01 1028.99 1028.96 1028.91 1028.83 1028.74 1028.63 1028.52 1028.41 1028.32 1028.24 1028.16 1028.04 1027.86 1027.60 1027.24 1026.77 1026.20 1025.58 1024.94 1024.33 1023.78 1023.32 1022.93 1022.61 1022.33 1022.05 1021.75 1021.39 1020.98 1020.51 1020.00 1019.46 1018.90 1018.33 1017.73
1027.90 1028.08 1028.23 1028.34 1028.42 1028.49 1028.53 1028.57 1028.60 1028.61 1028.60 1028.56 1028.49 1028.39 1028.28 1028.17 1028.06 1027.96 1027.87 1027.76 1027.61 1027.39 1027.07 1026.65 1026.13 1025.53 1024.90 1024.27 1023.68 1023.16 1022.72 1022.35 1022.04 1021.74 1021.44 1021.10 1020.71 1020.26 1019.77 1019.23 1018.66 1018.06 1017.45
1027.24 1027.45 1027.63 1027.77 1027.89 1027.98 1028.07 1028.15 1028.22 1028.28 1028.30 1028.29 1028.23 1028.13 1028.00 1027.85 1027.70 1027.57 1027.44 1027.33 1027.19 1027.00 1026.74 1026.38 1025.93 1025.38 1024.78 1024.15 1023.54 1022.98 1022.49 1022.06 1021.70 1021.37 1021.05 1020.71 1020.32 1019.89 1019.40 1018.86 1018.29 1017.69 1017.05
1026.56 1026.81 1027.04 1027.22 1027.38 1027.51 1027.64 1027.75 1027.86 1027.95 1028.00 1028.00 1027.95 1027.83 1027.66 1027.46 1027.25 1027.06 1026.89 1026.74 1026.60 1026.44 1026.23 1025.95 1025.57 1025.09 1024.54 1023.95 1023.34 1022.75 1022.21 1021.74 1021.32 1020.95 1020.59 1020.22 1019.83 1019.38 1018.89 1018.35 1017.77 1017.16 1016.53
1025.85 1026.16 1026.43 1026.66 1026.87 1027.04 1027.20 1027.35 1027.49 1027.60 1027.67 1027.67 1027.61 1027.46 1027.25 1027.00 1026.72 1026.46 1026.23 1026.04 1025.89 1025.74 1025.57 1025.35 1025.05 1024.66 1024.18 1023.63 1023.05 1022.46 1021.89 1021.37 1020.89 1020.46 1020.05 1019.64 1019.21 1018.74 1018.23 1017.68 1017.09 1016.47 1015.83
1025.07 1025.43 1025.76 1026.04 1026.29 1026.51 1026.71 1026.89 1027.05 1027.17 1027.25 1027.26 1027.18 1027.01 1026.77 1026.46 1026.12 1025.79 1025.50 1025.26 1025.08 1024.93 1024.79 1024.62 1024.40 1024.08 1023.68 1023.19 1022.64 1022.06 1021.48 1020.92 1020.40 1019.90 1019.43 1018.96 1018.48 1017.96 1017.41 1016.83 1016.22 1015.59 1014.95
1024.15 1024.57 1024.95 1025.29 1025.59 1025.85 1026.09 1026.29 1026.47 1026.62 1026.70 1026.72 1026.65 1026.47 1026.21 1025.86 1025.48 1025.10 1024.75 1024.46 1024.23 1024.06 1023.93 1023.79 1023.61 1023.37 1023.03 1022.60 1022.10 1021.54 1020.96 1020.38 1019.81 1019.27 1018.73 1018.19 1017.64 1017.07 1016.46 1015.83 1015.18 1014.53 1013.87
1023.06 1023.51 1023.94 1024.34 1024.70 1025.01 1025.29 1025.53 1025.73 1025.90 1026.01 1026.05 1026.00 1025.84 1025.59 1025.24 1024.84 1024.43 1024.03 1023.69 1023.41 1023.20 1023.04 1022.90 1022.74 1022.53 1022.23 1021.85 1021.40 1020.87 1020.31 1019.72 1019.13 1018.55 1017.96 1017.36 1016.73 1016.09 1015.41 1014.72 1014.01 1013.31 1012.63
1021.76 1022.24 1022.72 1023.17 1023.59 1023.96 1024.29 1024.57 1024.82 1025.03 1025.18 1025.27 1025.26 1025.15 1024.93 1024.62 1024.24 1023.81 1023.38 1022.99 1022.65 1022.38 1022.17 1021.98 1021.80 1021.58 1021.31 1020.96 1020.54 1020.05 1019.52 1018.95 1018.36 1017.75 1017.13 1016.47 1015.79 1015.07 1014.32 1013.55 1012.78 1012.02 1011.29
1020.28 1020.78 1021.30 1021.82 1022.30 1022.73 1023.12 1023.47 1023.77 1024.03 1024.24 1024.39 1024.45 1024.42 1024.28 1024.03 1023.68 1023.27 1022.83 1022.39 1021.99 1021.64 1021.33 1021.07 1020.83 1020.57 1020.29 1019.95 1019.55 1019.10 1018.60 1018.06 1017.49 1016.89 1016.26 1015.58 1014.85 1014.08 1013.26 1012.41 1011.55 1010.72 1009.94
1018.67 1019.20 1019.77 1020.34 1020.89 1021.39 1021.85 1022.26 1022.62 1022.95 1023.23 1023.46 1023.61 1023.67 1023.62 1023.45 1023.17 1022.79 1022.35 1021.88 1021.41 1020.96 1020.56 1020.19 1019.85 1019.53 1019.19 1018.84 1018.45 1018.03 1017.58 1017.09 1016.56 1015.99 1015.38 1014.70 1013.96 1013.14 1012.27 1011.35 1010.42 1009.51 1008.65
1017.04 1017.59 1018.20 1018.83 1019.44 1020.02 1020.54 1021.01 1021.44 1021.83 1022.18 1022.49 1022.74 1022.90 1022.96 1022.88 1022.68 1022.34 1021.91 1021.41 1020.88 1020.34 1019.82 1019.34 1018.89 1018.47 1018.08 1017.69 1017.30 1016.89 1016.48 1016.04 1015.57 1015.06 1014.49 1013.84 1013.10 1012.28 1011.37 1010.40 1009.41 1008.43 1007.51
1015.47 1016.05 1016.69 1017.37 1018.04 1018.67 1019.24 1019.77 1020.25 1020.69 1021.11 1021.50 1021.84 1022.10 1022.25 1022.27 1022.14 1021.87 1021.45 1020.94 1020.35 1019.73 1019.11 1018.51 1017.95 1017.44 1016.97 1016.53 1016.12 1015.73 1015.34 1014.95 1014.54 1014.09 1013.58 1012.98 1012.28 1011.47 1010.56 1009.57 1008.54 1007.51 1006.53
1014.05 1014.64 1015.32 1016.02 1016.72 1017.39 1017.99 1018.55 1019.07 1019.55 1020.02 1020.47 1020.88 1021.22 1021.47 1021.57 1021.53 1021.30 1020.92 1020.40 1019.78 1019.10 1018.39 1017.70 1017.04 1016.44 1015.89 1015.40 1014.96 1014.56 1014.19 1013.84 1013.47 1013.08 1012.62 1012.08 1011.43 1010.66 1009.78 1008.80 1007.76 1006.71 1005.70
1012.80 1013.40 1014.08 1014.80 1015.51 1016.18 1016.80 1017.36 1017.89 1018.40 1018.90 1019.39 1019.85 1020.26 1020.57 1020.76 1020.77 1020.61 1020.26 1019.76 1019.12 1018.41 1017.65 1016.89 1016.17 1015.49 1014.88 1014.33 1013.85 1013.43 1013.05 1012.70 1012.36 1012.00 1011.59 1011.10 1010.51 1009.79 1008.96 1008.02 1007.01 1005.98 1004.98
1011.71 1012.31 1012.98 1013.68 1014.38 1015.03 1015.63 1016.18 1016.71 1017.22 1017.74 1018.25 1018.75 1019.20 1019.57 1019.80 1019.88 1019.76 1019.45 1018.97 1018.35 1017.64 1016.86 1016.08 1015.31 1014.59 1013.93 1013.34 1012.82 1012.35 1011.95 1011.57 1011.22 1010.86 1010.47 1010.01 1009.46 1008.81 1008.03 1007.16 1006.21 1005.24 1004.28
1010.74 1011.32 1011.96 1012.63 1013.28 1013.90 1014.47 1015.00 1015.51 1016.01 1016.53 1017.06 1017.57 1018.05 1018.45 1018.72 1018.84 1018.76 1018.49 1018.05 1017.46 1016.77 1016.01 1015.24 1014.47 1013.74 1013.06 1012.43 1011.87 1011.36 1010.89 1010.47 1010.07 1009.68 1009.26 1008.81 1008.28 1007.66 1006.96 1006.16 1005.29 1004.40 1003.52
1009.82 1010.36 1010.97 1011.59 1012.19 1012.76 1013.29 1013.80 1014.29 1014.79 1015.30 1015.83 1016.36 1016.85 1017.26 1017.55 1017.69 1017.64 1017.41 1017.00 1016.46 1015.81 1015.11 1014.37 1013.64 1012.93 1012.25 1011.61 1011.01 1010.45 1009.92 1009.42 1008.95 1008.49 1008.02 1007.53 1006.99 1006.40 1005.74 1005.01 1004.23 1003.44 1002.67
1008.88 1009.39 1009.95 1010.52 1011.07 1011.60 1012.10 1012.58 1013.06 1013.56 1014.07 1014.61 1015.13 1015.62 1016.04 1016.33 1016.47 1016.43 1016.23 1015.86 1015.37 1014.78 1014.14 1013.47 1012.80 1012.14 1011.49 1010.86 1010.25 1009.64 1009.05 1008.47 1007.91 1007.35 1006.80 1006.25 1005.68 1005.08 1004.44 1003.76 1003.07 1002.37 1001.70
1007.90 1008.37 1008.88 1009.40 1009.92 1010.42 1010.89 1011.37 1011.84 1012.34 1012.86 1013.40 1013.93 1014.41 1014.81 1015.09 1015.22 1015.18 1014.99 1014.66 1014.21 1013.69 1013.13 1012.54 1011.95 1011.37 1010.78 1010.18 1009.57 1008.95 1008.31 1007.65 1007.00 1006.35 1005.70 1005.07 1004.44 1003.80 1003.16 1002.51 1001.86 1001.25 1000.68
1006.85 1007.29 1007.77 1008.26 1008.75 1009.22 1009.69 1010.16 1010.65 1011.15 1011.69 1012.22 1012.74 1013.21 1013.59 1013.85 1013.96 1013.92 1013.73 1013.42 1013.02 1012.56 1012.08 1011.59 1011.10 1010.60 1010.09 1009.56 1008.98 1008.36 1007.69 1006.99 1006.27 1005.53 1004.80 1004.08 1003.37 1002.68 1002.01 1001.35 1000.73 1000.16 999.66
1005.77 1006.18 1006.63 1007.10 1007.57 1008.04 1008.50 1008.98 1009.47 1009.99 1010.53 1011.07 1011.58 1012.03 1012.39 1012.62 1012.71 1012.65 1012.46 1012.17 1011.81 1011.42 1011.02 1010.62 1010.23 1009.84 1009.43 1008.97 1008.45 1007.86 1007.21 1006.49 1005.72 1004.93 1004.13 1003.33 1002.56 1001.81 1001.08 1000.40 999.77 999.21 998.74
1004.68 1005.07 1005.50 1005.96 1006.41 1006.87 1007.33 1007.81 1008.31 1008.84 1009.38 1009.91 1010.41 1010.85 1011.18 1011.39 1011.46 1011.40 1011.21 1010.95 1010.63 1010.30 1009.98 1009.67 1009.37 1009.08 1008.77 1008.40 1007.96 1007.43 1006.81 1006.11 1005.34 1004.53 1003.69 1002.85 1002.02 1001.21 1000.45 999.72 999.06 998.48 997.99
1003.62 1004.00 1004.41 1004.84 1005.28 1005.72 1006.18 1006.65 1007.14 1007.66 1008.20 1008.72 1009.22 1009.64 1009.96 1010.16 1010.23 1010.17 1010.01 1009.78 1009.51 1009.23 1008.98 1008.75 1008.54 1008.34 1008.11 1007.83 1007.46 1007.01 1006.45 1005.80 1005.07 1004.27 1003.44 1002.59 1001.73 1000.90 1000.09 999.33 998.62 998.00 997.47
1002.63 1002.98 1003.37 1003.78 1004.19 1004.60 1005.03 1005.48 1005.95 1006.46 1006.98 1007.49 1007.98 1008.40 1008.73 1008.94 1009.03 1009.00 1008.88 1008.69 1008.48 1008.26 1008.06 1007.90 1007.75 1007.61 1007.45 1007.24 1006.95 1006.56 1006.07 1005.49 1004.81 1004.07 1003.27 1002.45 1001.61 1000.77 999.95 999.16 998.42 997.75 997.17
1001.73 1002.04 1002.40 1002.76 1003.13 1003.51 1003.89 1004.31 1004.75 1005.23 1005.73 1006.23 1006.72 1007.15 1007.50 1007.75 1007.88 1007.91 1007.85 1007.72 1007.57 1007.41 1007.26 1007.14 1007.03 1006.93 1006.80 1006.63 1006.38 1006.05 1005.62 1005.10 1004.49 1003.81 1003.09 1002.32 1001.53 1000.73 999.92 999.13 998.38 997.67 997.05
Thickness
5570 5565 5560 5555 5551 5546 5542 5538 5535 5531 5527 5523 5519 5515 5512 5509 5507 5505 5503 5500 5498 5497 5497 5498 5499 5499 5500 5500 5502 5503 5505 5507 5510 5514 5519 5525 5533 5542 5553 5564 5577 5589 5602
5567 5562 5557 5551 5546 5541 5536 5531 5526 5521 5517 5513 5509 5505 5502 5499 5496 5493 5490 5488 5485 5483 5481 5481 5480 5480 5480 5480 5480 5480 5481 5482 5485 5489 5493 5499 5506 5516 5526 5539 5552 5567 5581
5564 5558 5553 5548 5542 5535 5529 5523 5518 5512 5508 5503 5500 5496 5492 5488 5485 5481 5478 5475 5472 5469 5466 5463 5462 5461 5460 5459 5458 5457 5456 5457 5458 5461 5465 5471 5478 5487 5498 5511 5525 5540 5557
5562 5555 5549 5544 5537 5529 5522 5516 5510 5505 5500 5495 5491 5486 5482 5478 5474 5470 5466 5462 5459 5455 5452 5448 5445 5442 5439 5437 5435 5433 5432 5431 5431 5432 5435 5440 5447 5456 5466 5480 5495 5512 5531
5559 5552 5545 5539 5531 5523 5516 5509 5503 5496 5492 5486 5481 5476 5472 5468 5464 5459 5455 5450 5445 5440 5436 5433 5429 5424 5421 5417 5414 5410 5406 5404 5402 5401 5402 5406 5412 5422 5433 5446 5463 5482 5502
5556 5548 5541 5534 5526 5518 5510 5503 5496 5488 5481 5475 5470 5467 5463 5459 5454 5448 5443 5437 5432 5426 5422 5417 5413 5409 5404 5398 5393 5387 5381 5376 5372 5369 5368 5371 5376 5385 5397 5411 5430 5450 5472
5555 5545 5538 5529 5521 5513 5506 5498 5489 5481 5473 5465 5460 5460 5458 5453 5446 5438 5431 5424 5419 5413 5407 5401 5396 5391 5386 5380 5372 5363 5355 5349 5343 5339 5337 5337 5342 5350 5362 5377 5396 5418 5442
5552 5543 5534 5526 5516 5508 5499 5491 5481 5473 5466 5457 5451 5448 5450 5450 5443 5430 5420 5412 5405 5398 5392 5385 5378 5371 5365 5359 5351 5341 5331 5323 5316 5311 5308 5308 5312 5319 5330 5346 5366 5389 5414
5551 5541 5532 5522 5513 5504 5495 5486 5476 5466 5459 5451 5441 5434 5432 5436 5430 5422 5412 5401 5392 5384 5377 5369 5362 5354 5346 5338 5330 5320 5309 5299 5292 5286 5284 5283 5287 5294 5305 5321 5338 5361 5389
5549 5539 5529 5518 5509 5499 5490 5480 5470 5460 5450 5443 5434 5424 5416 5411 5403 5406 5403 5392 5381 5372 5363 5355 5347 5338 5329 5320 5311 5300 5289 5279 5272 5266 5263 5263 5266 5274 5285 5301 5318 5340 5368
5547 5537 5526 5515 5505 5495 5485 5474 5464 5453 5443 5434 5427 5417 5407 5398 5390 5382 5386 5382 5373 5363 5352 5342 5332 5323 5314 5304 5294 5284 5273 5263 5255 5249 5246 5246 5250 5257 5269 5284 5302 5323 5349
5545 5534 5522 5513 5503 5492 5481 5469 5458 5447 5436 5426 5416 5407 5398 5390 5383 5376 5372 5370 5363 5354 5341 5329 5319 5310 5300 5289 5279 5269 5258 5249 5241 5236 5233 5233 5236 5244 5255 5270 5287 5309 5335
5544 5534 5520 5511 5500 5488 5476 5463 5451 5440 5429 5419 5408 5398 5388 5380 5371 5363 5357 5354 5349 5344 5332 5320 5308 5299 5288 5277 5267 5256 5247 5238 5231 5226 5223 5223 5226 5234 5245 5257 5276 5296 5321
5543 5531 5518 5507 5496 5484 5470 5457 5445 5434 5422 5411 5400 5389 5379 5370 5360 5350 5342 5336 5333 5332 5325 5315 5301 5288 5277 5266 5255 5244 5237 5229 5223 5218 5216 5216 5219 5226 5236 5249 5266 5286 5308
5538 5526 5514 5502 5490 5478 5465 5451 5439 5427 5415 5403 5392 5381 5370 5360 5350 5340 5331 5321 5313 5312 5315 5307 5293 5280 5266 5256 5246 5236 5229 5223 5217 5213 5211 5211 5214 5220 5229 5242 5258 5277 5298
5531 5520 5509 5496 5484 5471 5458 5444 5432 5420 5407 5396 5384 5373 5362 5352 5342 5332 5322 5312 5301 5293 5294 5295 5283 5271 5259 5249 5239 5229 5223 5217 5213 5210 5208 5208 5210 5215 5224 5236 5251 5270 5290
5522 5511 5500 5488 5476 5463 5451 5437 5426 5414 5401 5389 5377 5365 5355 5344 5334 5325 5314 5304 5294 5283 5279 5282 5272 5263 5253 5243 5235 5226 5218 5213 5210 5207 5205 5205 5207 5212 5220 5231 5246 5264 5283
5514 5503 5491 5479 5468 5457 5445 5433 5421 5409 5396 5384 5372 5360 5349 5337 5327 5317 5307 5297 5287 5277 5269 5267 5265 5256 5248 5238 5231 5223 5216 5210 5207 5205 5203 5204 5206 5210 5218 5229 5242 5259 5277
5507 5496 5484 5473 5462 5451 5439 5429 5416 5404 5392 5379 5367 5355 5344 5332 5322 5312 5302 5292 5282 5272 5263 5257 5256 5250 5243 5234 5227 5221 5214 5209 5206 5204 5202 5204 5206 5210 5217 5227 5241 5256 5274
5499 5489 5478 5467 5456 5445 5434 5423 5410 5398 5386 5374 5362 5351 5339 5328 5318 5307 5297 5287 5277 5268 5260 5253 5249 5245 5239 5231 5222 5217 5214 5208 5205 5203 5202 5202 5205 5209 5216 5226 5239 5253 5270
5492 5481 5471 5461 5450 5439 5429 5416 5404 5392 5380 5369 5358 5346 5336 5325 5314 5303 5293 5283 5273 5265 5258 5252 5247 5242 5235 5227 5219 5213 5209 5207 5205 5201 5202 5203 5204 5209 5216 5226 5238 5252 5268
5484 5474 5465 5455 5445 5435 5424 5411 5398 5386 5375 5364 5354 5343 5332 5321 5311 5301 5293 5283 5273 5264 5256 5248 5243 5237 5230 5222 5215 5208 5203 5202 5204 5201 5199 5203 5202 5209 5215 5224 5237 5250 5266
5477 5468 5459 5450 5441 5431 5418 5407 5395 5381 5371 5361 5350 5339 5329 5319 5309 5299 5289 5281 5272 5262 5253 5244 5238 5231 5224 5217 5210 5205 5200 5198 5198 5198 5195 5201 5204 5209 5216 5224 5235 5248 5264
5471 5463 5454 5444 5434 5425 5412 5401 5391 5378 5368 5358 5348 5337 5327 5317 5306 5295 5285 5276 5268 5259 5251 5241 5233 5226 5219 5212 5205 5201 5198 5197 5198 5197 5195 5198 5204 5209 5216 5225 5236 5248 5263
5465 5456 5447 5438 5428 5419 5407 5396 5384 5375 5366 5356 5346 5334 5323 5314 5304 5292 5282 5274 5267 5259 5250 5241 5233 5225 5218 5211 5204 5199 5196 5194 5197 5198 5195 5194 5200 5205 5214 5225 5237 5247 5261
5458 5449 5440 5431 5422 5412 5401 5390 5380 5370 5362 5353 5343 5332 5321 5311 5301 5290 5280 5272 5265 5258 5248 5240 5231 5223 5216 5209 5202 5195 5191 5189 5191 5194 5195 5192 5195 5198 5210 5224 5233 5245 5261